Weather in Verkhnia Syrovatka

Ukraine / Sumi District     50°49′59″N   34°56′58″E
temp.,
°C
wind,
m/s
gust,
m/s
humid.,
%
clouds,
%
prec.,
mm/h
press.,
hPa
HPBL,
m
22 april, thu
thu2200:00+5ssw359017 0.0 101670
03:00+4ssw35915 0.0 101779
06:00+4ssw37887 0.0 1018125
09:00+10ssw59705 0.0 1019443
12:00+15sw67537 0.0 10191466
15:00+16ssw6848100 0.3 10182143
18:00+14ssw485955 0.0 1018481
21:00+10s486797 0.0 1019138
23 april, fri
fri2300:00+9s4107717 0.0 1019189
03:00+8s411804 0.0 1018233
06:00+7s412860 0.0 1017273
09:00+11ssw7117160 0.0 1017647
12:00+15ssw7106054 0.0 10161250
15:00+15ssw71162100 1.3 10131524
18:00+7nw5692100 5.9 1014389
21:00+6nw4589100 7.6 1015492
24 april, sat
sat2400:00+6nw5789100 0.7 1014760
03:00+5wsw3790100 0.9 1014385
06:00+4wsw379395 0.2 1014301
09:00+6wnw467622 0.4 1014862
12:00+9w685399 0.7 10141677
15:00+7wsw9970100 1.2 10141067
18:00+6w686736 0.4 10141308
21:00+4wnw6108167 0.4 1017916
25 april, sun
sun2500:00+3w511813 0.0 1018418
03:00+2w411855 0.0 1018336
06:00+1wsw310875 0.0 1019290
09:00+6w58640 0.0 1019841
12:00+9wsw7944100 0.0 10182436
15:00+7wsw7969100 0.4 10181162
18:00+7w597196 0.8 10171303
21:00+5sw388874 1.0 1018267
26 april, mon
mon2600:00+3wsw35935 0.0 1018118
03:00+2wsw239494 0.0 101761
06:00+1nw239287 0.0 101779
09:00+5wnw226236 0.0 1017689
12:00+8w444587 0.0 10161984
15:00+9w574697 0.1 10151987
18:00+7wnw69557 0.1 10161978
21:00+3w3665100 0.1 1018134